TimePDT,TemperatureF,Dew PointF,Humidity,Sea Level PressureIn,VisibilityMPH,Wind Direction,Wind SpeedMPH,Gust SpeedMPH,PrecipitationIn,Events,Conditions,WindDirDegrees,DateUTC
12:00 AM,37.4,35.6,93,29.66,9.0,ESE,8.1,-,N/A,Rain,Light Rain,120,2012-10-20 07:00:00
12:03 AM,37.4,35.6,93,29.66,9.0,ESE,9.2,-,N/A,Rain,Light Rain,120,2012-10-20 07:03:00
12:32 AM,35.6,35.6,100,29.67,9.0,East,5.8,-,N/A,,Scattered Clouds,100,2012-10-20 07:32:00
1:00 AM,35.6,35.6,100,29.67,9.0,East,5.8,-,N/A,,Clear,100,2012-10-20 08:00:00
2:00 AM,35.6,35.6,100,29.67,9.0,ENE,4.6,-,N/A,,Mostly Cloudy,70,2012-10-20 09:00:00
3:00 AM,35.6,33.8,93,29.68,9.0,ESE,6.9,-,N/A,,Clear,120,2012-10-20 10:00:00
4:00 AM,35.6,35.6,100,29.68,9.0,ENE,6.9,-,N/A,,Mostly Cloudy,70,2012-10-20 11:00:00
5:00 AM,35,35,97,29.68,10,East,4.6,,,,,90,2012-10-20 12:00:00
5:00 AM,33.8,33.8,100,29.68,9.0,East,6.9,-,N/A,,Mostly Cloudy,90,2012-10-20 12:00:00
6:00 AM,35.6,33.8,93,29.68,9.0,SE,2.3,-,N/A,,Overcast,140,2012-10-20 13:00:00
7:00 AM,35.6,33.8,93,29.69,9.0,East,3.5,-,N/A,,Mostly Cloudy,80,2012-10-20 14:00:00
8:00 AM,33.8,33.8,100,29.70,9.0,Variable,2.3,-,N/A,,Mostly Cloudy,0,2012-10-20 15:00:00
9:00 AM,35.6,35.6,100,29.70,9.0,Variable,2.3,-,N/A,,Mostly Cloudy,0,2012-10-20 16:00:00
10:00 AM,37.4,37.4,100,29.71,9.0,NE,4.6,-,N/A,,Overcast,40,2012-10-20 17:00:00
11:00 AM,39,37,88,29.72,10,ENE,4.6,,,,Overcast,70,2012-10-20 18:00:00
11:00 AM,39.2,37.4,93,29.72,9.0,ENE,4.6,-,N/A,,Overcast,70,2012-10-20 18:00:00
1:00 PM,42.8,37.4,81,29.73,9.0,NNW,3.5,-,N/A,,Partly Cloudy,340,2012-10-20 20:00:00
2:00 PM,46.4,32.0,57,29.73,9.0,Variable,2.3,-,N/A,,Clear,0,2012-10-20 21:00:00
3:00 PM,46.4,35.6,66,29.73,9.0,NNW,9.2,-,N/A,,Mostly Cloudy,330,2012-10-20 22:00:00
4:00 PM,46.4,35.6,66,29.73,9.0,NNW,8.1,-,N/A,,Scattered Clouds,340,2012-10-20 23:00:00
5:00 PM,46,34,51,29.73,10,NNW,4.6,,,,,340,2012-10-21 00:00:00
5:00 PM,46.4,33.8,62,29.73,9.0,NNW,5.8,-,N/A,,Clear,330,2012-10-21 00:00:00
6:00 PM,44.6,33.8,66,29.73,9.0,NNE,3.5,-,N/A,,Clear,30,2012-10-21 01:00:00
7:00 PM,37.4,35.6,93,29.73,9.0,ENE,5.8,-,N/A,,Clear,60,2012-10-21 02:00:00
8:00 PM,37.4,35.6,93,29.73,9.0,NE,5.8,-,N/A,,Clear,50,2012-10-21 03:00:00
9:00 PM,37.4,35.6,93,29.73,9.0,NE,6.9,-,N/A,,Clear,50,2012-10-21 04:00:00
10:00 PM,37.4,33.8,87,29.74,9.0,ENE,6.9,-,N/A,,Clear,70,2012-10-21 05:00:00
11:00 PM,37,33,79,29.75,10,NE,8.1,,,,,50,2012-10-21 06:00:00
11:00 PM,37.4,32.0,81,29.75,9.0,ENE,9.2,-,N/A,,Mostly Cloudy,70,2012-10-21 06:00:00